TimePDT,TemperatureF,Dew PointF,Humidity,Sea Level PressureIn,VisibilityMPH,Wind Direction,Wind SpeedMPH,Gust SpeedMPH,PrecipitationIn,Events,Conditions,WindDirDegrees,DateUTC
12:00 AM,49.6,46.8,90,29.82,-9999.0,ENE,2.3,-,N/A,,Unknown,70,2012-10-12 07:00:00
1:00 AM,49.1,46.6,91,29.82,-9999.0,East,3.5,-,N/A,,Unknown,80,2012-10-12 08:00:00
2:00 AM,49.1,46.4,90,29.82,-9999.0,NNE,1.2,-,N/A,,Unknown,20,2012-10-12 09:00:00
4:00 AM,49.3,46.6,90,29.84,-9999.0,East,3.5,-,N/A,,Unknown,90,2012-10-12 11:00:00
5:00 AM,49,46,87,29.85,,East,4.6,,,,,100,2012-10-12 12:00:00
6:00 AM,49.5,46.9,91,29.86,-9999.0,Calm,Calm,-,N/A,,Unknown,0,2012-10-12 13:00:00
7:00 AM,49.1,47.5,94,29.87,-9999.0,Calm,Calm,-,0.02,,Unknown,0,2012-10-12 14:00:00
8:00 AM,49.1,47.5,94,29.88,-9999.0,East,3.5,-,N/A,,Unknown,100,2012-10-12 15:00:00
11:00 AM,50,48,92,29.91,,NNE,5.8,,,,,20,2012-10-12 18:00:00
12:00 PM,50.4,49.3,96,29.92,-9999.0,NNE,6.9,-,0.03,,Unknown,20,2012-10-12 19:00:00
1:00 PM,50.7,49.6,96,29.91,-9999.0,NNE,4.6,-,0.03,,Unknown,30,2012-10-12 20:00:00
2:00 PM,51.6,50.5,96,29.91,-9999.0,NNE,3.5,-,0.02,,Unknown,20,2012-10-12 21:00:00
3:00 PM,51.4,50.4,96,29.91,-9999.0,NNE,5.8,-,0.05,,Unknown,30,2012-10-12 22:00:00
5:00 PM,52,51,94,29.90,,NNE,4.6,,,,,20,2012-10-13 00:00:00
5:00 PM,51.8,50.7,96,29.90,-9999.0,NNE,4.6,-,0.05,,Unknown,20,2012-10-13 00:00:00
6:00 PM,51.6,50.5,96,29.91,-9999.0,North,6.9,-,0.04,,Unknown,10,2012-10-13 01:00:00
7:00 PM,51.6,50.7,97,29.91,-9999.0,NNE,6.9,-,0.03,,Unknown,20,2012-10-13 02:00:00
8:00 PM,51.8,50.9,97,29.91,-9999.0,NNE,6.9,-,0.05,,Unknown,20,2012-10-13 03:00:00
9:00 PM,52.0,51.1,97,29.92,-9999.0,NNE,3.5,-,0.10,,Unknown,20,2012-10-13 04:00:00
10:00 PM,52.0,51.1,97,29.93,-9999.0,NNE,3.5,-,0.05,,Unknown,20,2012-10-13 05:00:00
11:00 PM,52,51,97,29.94,,Calm,Calm,,,,,,2012-10-13 06:00:00
11:00 PM,52.3,51.4,97,29.94,-9999.0,Calm,Calm,-,0.04,,Unknown,0,2012-10-13 06:00:00